Stations météo

réclame
Mon MeteoGroup
Gela, Italie (16453): Température de l'air & dewpoint: 13.06.2018 22:00:00 - 19.06.2018 22:00:00 (CEST)Gela, Italie (16453): Vitesse du vent: 13.06.2018 22:00:00 - 19.06.2018 22:00:00 (CEST)Gela, Italie (16453): Direction du vent: 13.06.2018 22:00:00 - 19.06.2018 22:00:00 (CEST)Gela, Italie (16453): reduced air pressure: 13.06.2018 22:00:00 - 19.06.2018 22:00:00 (CEST)Gela, Italie (16453): visibility: 13.06.2018 22:00:00 - 19.06.2018 22:00:00 (CEST)Gela, Italie (16453): Ensoleillement: 13.06.2018 22:00:00 - 19.06.2018 22:00:00 (CEST)
Date & Time tt [°C] td [°C] ff [km/h] ff [knt] dd ppp [hPa] vv [km] sd [min]
19.06.2018 22:00:00 - - - - - - - -
19.06.2018 21:00:00 - - - - - - - -
19.06.2018 20:00:00 23,4 16,0 4 2 SW 1014,0 18 0
19.06.2018 19:00:00 24,0 16,0 8 4 ENE - 10 -
19.06.2018 18:00:00 24,0 16,0 5 3 N - 10 -
19.06.2018 17:00:00 23,8 16,8 13 7 NNE 1014,2 14 0
19.06.2018 16:00:00 24,0 17,0 4 2 WNW - 10 -
19.06.2018 15:00:00 23,0 17,0 9 5 S - 10 -
19.06.2018 14:00:00 22,6 15,9 2 1 SW 1013,7 15 0
19.06.2018 13:00:00 22,0 16,0 9 5 SE - 10 -
19.06.2018 12:00:00 23,0 15,0 11 6 SW - 10 -
19.06.2018 11:00:00 23,4 16,2 5 3 SW 1013,2 20 60
19.06.2018 10:00:00 23,0 16,0 4 2 SW - 10 -
19.06.2018 09:00:00 22,0 17,0 0 0 N - 10 -
19.06.2018 08:00:00 22,0 16,5 4 2 NE 1012,5 20 60
19.06.2018 07:00:00 - - - - - - - -
19.06.2018 06:00:00 - - - - - - - -
19.06.2018 05:00:00 - - - - - - - -
19.06.2018 04:00:00 - - - - - - - -
19.06.2018 03:00:00 - - - - - - - -
19.06.2018 02:00:00 - - - - - - - -
19.06.2018 01:00:00 - - - - - - - -
19.06.2018 00:00:00 - - - - - - - -
18.06.2018 23:00:00 - - - - - - - -
18.06.2018 22:00:00 - - - - - - - -
18.06.2018 21:00:00 - - - - - - - -
18.06.2018 20:00:00 21,0 16,8 9 5 ENE 1010,7 10 12
18.06.2018 19:00:00 20,0 15,0 11 6 S - 10 -
18.06.2018 18:00:00 22,0 17,0 24 13 SSE - 10 -
18.06.2018 17:00:00 21,0 16,8 13 7 W 1010,3 10 36
18.06.2018 16:00:00 21,0 17,0 22 12 W - 10 -
18.06.2018 15:00:00 22,0 17,0 26 14 W - 10 -
18.06.2018 14:00:00 21,0 16,2 22 12 W 1011,4 20 60
18.06.2018 13:00:00 - - - - - - - -
18.06.2018 12:00:00 21,0 16,0 18 10 W - 10 -
18.06.2018 11:00:00 21,2 15,5 13 7 WSW 1011,7 25 60
18.06.2018 10:00:00 21,0 14,0 11 6 WSW - 10 -
18.06.2018 09:00:00 23,0 16,0 8 4 W - 10 -
18.06.2018 08:00:00 22,0 15,1 4 2 NW 1011,7 25 60
18.06.2018 07:00:00 - - - - - - - -
18.06.2018 06:00:00 - - - - - - - -
18.06.2018 05:00:00 - - - - - - - -
18.06.2018 04:00:00 - - - - - - - -
18.06.2018 03:00:00 - - - - - - - -
18.06.2018 02:00:00 - - - - - - - -
18.06.2018 01:00:00 - - - - - - - -
18.06.2018 00:00:00 - - - - - - - -
17.06.2018 23:00:00 - - - - - - - -
17.06.2018 22:00:00 - - - - - - - -
17.06.2018 21:00:00 - - - - - - - -
17.06.2018 20:00:00 22,0 16,7 15 8 ENE 1010,1 12 30
17.06.2018 19:00:00 21,0 17,0 26 14 WSW - 10 -
17.06.2018 18:00:00 21,0 17,0 29 16 W - 8 -
17.06.2018 17:00:00 21,0 16,8 22 12 W 1011,0 4,0 60
17.06.2018 16:00:00 21,0 17,0 21 11 WSW - 8 -
17.06.2018 15:00:00 21,0 17,0 28 15 W - 8 -
17.06.2018 14:00:00 21,2 16,0 28 15 W 1012,2 10 48
17.06.2018 13:00:00 21,0 16,0 26 14 W - 10 -
17.06.2018 12:00:00 21,0 15,0 21 11 W - 10 -
17.06.2018 11:00:00 22,6 15,9 11 6 W 1012,5 18 60
17.06.2018 10:00:00 22,0 16,0 16 9 W - 10 -
17.06.2018 09:00:00 20,0 15,0 21 11 W - 10 -
17.06.2018 08:00:00 21,0 15,3 8 4 WSW 1013,4 14 60
17.06.2018 07:00:00 - - - - - - - -
17.06.2018 06:00:00 - - - - - - - -
17.06.2018 05:00:00 - - - - - - - -
17.06.2018 04:00:00 - - - - - - - -
17.06.2018 03:00:00 - - - - - - - -
17.06.2018 02:00:00 - - - - - - - -
17.06.2018 01:00:00 - - - - - - - -
17.06.2018 00:00:00 - - - - - - - -
16.06.2018 23:00:00 - - - - - - - -
16.06.2018 22:00:00 - - - - - - - -
16.06.2018 21:00:00 - - - - - - - -
16.06.2018 20:00:00 25,4 13,6 13 7 N 1009,3 18 36
16.06.2018 19:00:00 22,0 17,0 15 8 W - 10 -
16.06.2018 18:00:00 21,0 17,0 26 14 W - 10 -
16.06.2018 17:00:00 20,8 16,4 35 19 W 1008,7 14 60
16.06.2018 16:00:00 21,0 17,0 31 17 W - 10 -
16.06.2018 15:00:00 21,0 17,0 31 17 W - 10 -
16.06.2018 14:00:00 21,4 17,2 29 16 W 1009,3 16 60
16.06.2018 13:00:00 21,0 17,0 31 17 W - 10 -
16.06.2018 12:00:00 21,0 17,0 24 13 W - 10 -
16.06.2018 11:00:00 20,2 16,0 18 10 WNW 1010,0 16 60
16.06.2018 10:00:00 20,0 16,0 16 9 WSW - 10 -
16.06.2018 09:00:00 20,0 15,0 8 4 SW - 10 -
16.06.2018 08:00:00 20,4 15,6 0 0 N 1009,7 18 60
16.06.2018 07:00:00 - - - - - - - -
16.06.2018 06:00:00 - - - - - - - -
16.06.2018 05:00:00 - - - - - - - -
16.06.2018 04:00:00 - - - - - - - -
16.06.2018 03:00:00 - - - - - - - -
16.06.2018 02:00:00 - - - - - - - -
16.06.2018 01:00:00 - - - - - - - -
16.06.2018 00:00:00 - - - - - - - -
15.06.2018 23:00:00 - - - - - - - -
15.06.2018 22:00:00 - - - - - - - -
15.06.2018 21:00:00 - - - - - - - -
15.06.2018 20:00:00 21,0 12,2 15 8 W 1008,8 15 18
15.06.2018 19:00:00 21,0 12,0 11 6 W - 10 -
15.06.2018 18:00:00 21,0 12,0 18 10 W - 10 -
15.06.2018 17:00:00 23,2 12,8 18 10 W 1008,3 18 48
15.06.2018 16:00:00 25,0 14,0 15 8 N - 10 -
15.06.2018 15:00:00 25,0 14,0 15 8 N - 10 -
15.06.2018 14:00:00 26,0 14,8 13 7 NNE 1007,7 18 48
15.06.2018 13:00:00 22,0 12,0 24 13 W - 10 -
15.06.2018 12:00:00 25,0 16,0 13 7 N - 10 -
15.06.2018 11:00:00 21,0 16,6 13 7 W 1007,3 20 42
15.06.2018 10:00:00 22,0 18,0 9 5 W - 10 -
15.06.2018 09:00:00 20,0 17,0 5 3 W - 10 -
15.06.2018 08:00:00 19,6 16,2 8 4 W 1007,6 20 18
15.06.2018 07:00:00 - - - - - - - -
15.06.2018 06:00:00 - - - - - - - -
15.06.2018 05:00:00 - - - - - - - -
15.06.2018 04:00:00 - - - - - - - -
15.06.2018 03:00:00 - - - - - - - -
15.06.2018 02:00:00 - - - - - - - -
15.06.2018 01:00:00 - - - - - - - -
15.06.2018 00:00:00 - - - - - - - -
14.06.2018 23:00:00 - - - - - - - -
14.06.2018 22:00:00 - - - - - - - -
14.06.2018 21:00:00 - - - - - - - -
14.06.2018 20:00:00 20,0 16,8 29 16 W 1005,1 6 0
14.06.2018 19:00:00 21,0 17,0 31 17 W - 10 -
14.06.2018 18:00:00 21,0 17,0 29 16 W - 10 -
14.06.2018 17:00:00 22,0 17,8 26 14 W 1005,2 8 60
14.06.2018 16:00:00 22,0 18,0 31 17 W - 8 -
14.06.2018 15:00:00 22,0 18,0 29 16 W - 8 -
14.06.2018 14:00:00 21,6 17,6 29 16 W 1006,0 8 48
14.06.2018 13:00:00 21,0 17,0 26 14 W - 8 -
14.06.2018 12:00:00 21,0 17,0 35 19 W - 8 -
14.06.2018 11:00:00 21,4 17,2 26 14 W 1007,1 4,0 12
14.06.2018 10:00:00 22,0 17,0 22 12 W - 10 -
14.06.2018 09:00:00 21,0 17,0 18 10 W - 10 -
14.06.2018 08:00:00 20,4 15,8 11 6 W 1006,9 10 42
14.06.2018 07:00:00 - - - - - - - -
14.06.2018 06:00:00 - - - - - - - -
14.06.2018 05:00:00 - - - - - - - -
14.06.2018 04:00:00 - - - - - - - -
14.06.2018 03:00:00 - - - - - - - -
14.06.2018 02:00:00 - - - - - - - -
14.06.2018 01:00:00 - - - - - - - -
14.06.2018 00:00:00 - - - - - - - -
13.06.2018 23:00:00 - - - - - - - -
13.06.2018 22:00:00 - - - - - - - -

tt = Température de l'air
td = dewpoint
ff = Vitesse du vent
dd = Direction du vent
ppp = reduced air pressure
vv = visibility
sd = Ensoleillement

stations d'obs. à proximité